Retour au catalogue

SL-12 DEB

LostHEO
NORAD 41690·DEBRIS·🇷🇺 Russia

Lancé Oct 26, 2007 depuis Baikonur Cosmodrome

Loading…

Prochains Passages (prochaines 24 heures)

TLE

PériméSource: Space-Track

Époque: Apr 21, 2018, 11:22 UTC

1 41690U 07052X   18111.47421640  .00018138  00000-0  97686-2 0  9993
2 41690  63.8917 241.4430 5765713  34.7125 352.0047  4.32641947 54112

Suivez SL-12 DEB en temps réel avec AllMySat

Download on the App Store